Date String (YYYY-MM-DD hh:mm:ss) UTC,Instrument flags,absolute air pressure of the measurement (hPa),sample flow rate (lpm),inlet stack bypass flow (lpm),air temperature of the measurement (°C),ambient temperature measured by the external sensor (°C),aerosol sample conditioner tube jacket temperature (°C),OPC LED temperature (°C),internal box temperature (°C),relative humidity of the measurement (%),span deviation,mass concentration of particles derived from Lorenz-Mie calculation of OPC scattering (μg/m³),mass concentration of particles derived from Lorenz-Mie calculation of OPC scattering (μg/m³),mass concentration of particles derived from Lorenz-Mie calculation of OPC scattering (μg/m³)
DateTimeUTC,F1_M11,P_M11,Q1_M11,Q2_M11,T1_M11,T2_M11,T3_M11,T4_M11,T5_M11,U1_M11,ZSPAN_M11,X0_M11,X2_M11,X1_M11
2023-11-14 02:00:00,SystemResetWarning,0831.9,4.99,000.00,028.5,027.5,000.0,036.8,029.9,7.5,0000.0,0011.37,0003.98,0003.05
2023-11-14 02:01:00,SystemResetWarning,0831.9,4.99,000.00,028.5,027.5,000.0,036.8,029.8,7.5,0000.0,0011.34,0004.00,0003.07
2023-11-14 02:02:00,SystemResetWarning,0831.9,5.00,000.00,028.5,027.4,000.0,036.8,029.8,7.5,0000.0,0011.53,0004.01,0003.07
2023-11-14 02:03:00,SystemResetWarning,0831.9,5.01,000.00,028.5,027.4,000.0,036.8,029.8,7.3,0000.0,0011.43,0003.99,0003.06
2023-11-14 02:04:00,SystemResetWarning,0831.9,5.00,000.00,028.5,027.4,000.0,036.8,029.8,7.2,0000.0,0011.35,0003.94,0003.05
2023-11-14 02:05:00,SystemResetWarning,0831.9,4.99,000.00,028.5,027.4,000.0,036.8,029.8,7.2,0000.0,0010.74,0003.85,0002.99
2023-11-14 02:06:00,SystemResetWarning,0831.9,4.99,000.00,028.5,027.3,000.0,036.8,029.8,7.0,0000.0,0010.58,0003.78,0002.91
2023-11-14 02:07:00,SystemResetWarning,0831.9,5.00,000.00,028.4,027.3,000.0,036.8,029.7,7.1,0000.0,0010.39,0003.72,0002.85
2023-11-14 02:08:00,SystemResetWarning,0831.9,5.00,000.00,028.4,027.3,000.0,036.8,029.7,7.2,0000.0,0010.37,0003.65,0002.78
2023-11-14 02:09:00,SystemResetWarning,0831.9,5.01,000.00,028.4,027.3,000.0,036.8,029.7,7.2,0000.0,0010.70,0003.60,0002.71
2023-11-14 02:10:00,SystemResetWarning,0831.9,5.01,000.00,028.4,027.3,000.0,036.8,029.7,7.1,0000.0,0010.57,0003.54,0002.64
2023-11-14 02:11:00,SystemResetWarning,0831.8,5.00,000.00,028.4,027.3,000.0,036.8,029.7,7.0,0000.0,0009.97,0003.45,0002.56
2023-11-14 02:12:00,SystemResetWarning,0831.8,5.00,000.00,028.4,027.3,000.0,036.8,029.7,7.0,0000.0,0009.67,0003.36,0002.46
2023-11-14 02:13:00,SystemResetWarning,0831.8,4.99,000.00,028.4,027.2,000.0,036.8,029.7,6.8,0000.0,0009.25,0003.28,0002.38
2023-11-14 02:14:00,SystemResetWarning,0832.0,5.00,000.00,028.4,027.2,000.0,036.8,029.7,6.8,0000.0,0009.01,0003.19,0002.31
2023-11-14 02:15:00,SystemResetWarning,0832.0,5.00,000.00,028.4,027.2,000.0,036.8,029.6,6.7,0000.0,0008.88,0003.14,0002.25
2023-11-14 02:16:00,SystemResetWarning,0832.0,5.01,000.00,028.4,027.2,000.0,036.8,029.6,6.7,0000.0,0009.45,0003.11,0002.21
2023-11-14 02:17:00,SystemResetWarning,0831.8,5.01,000.00,028.3,027.2,000.0,036.8,029.6,6.9,0000.0,0009.00,0003.04,0002.19
2023-11-14 02:18:00,SystemResetWarning,0831.8,5.00,000.00,028.3,027.1,000.0,036.8,029.6,6.8,0000.0,0009.25,0002.98,0002.18
2023-11-14 02:19:00,SystemResetWarning,0831.8,5.00,000.00,028.3,027.1,000.0,036.8,029.6,7.0,0000.0,0009.59,0002.93,0002.17
2023-11-14 02:20:00,SystemResetWarning,0831.8,5.00,000.00,028.3,027.1,000.0,036.8,029.6,7.1,0000.0,0009.07,0002.84,0002.14
2023-11-14 02:21:00,SystemResetWarning,0831.8,5.00,000.00,028.3,027.1,000.0,036.8,029.6,7.0,0000.0,0008.86,0002.81,0002.11
2023-11-14 02:22:00,SystemResetWarning,0831.8,5.00,000.00,028.3,027.1,000.0,036.8,029.6,7.0,0000.0,0009.07,0002.79,0002.10
2023-11-14 02:23:00,SystemResetWarning,0831.8,5.00,000.00,028.3,027.1,000.0,036.7,029.6,7.1,0000.0,0008.92,0002.76,0002.09
2023-11-14 02:24:00,SystemResetWarning,0832.1,4.99,000.00,028.3,027.0,000.0,036.7,029.6,7.5,0000.0,0008.55,0002.73,0002.06
2023-11-14 02:25:00,SystemResetWarning,0832.3,4.99,000.00,028.3,027.0,000.0,036.7,029.6,7.6,0000.0,0008.75,0002.75,0002.05
2023-11-14 02:26:00,SystemResetWarning,0832.3,5.00,000.00,028.3,027.1,000.0,036.7,029.6,7.9,0000.0,0009.22,0002.74,0002.02
2023-11-14 02:27:00,SystemResetWarning,0831.9,5.01,000.00,028.3,027.1,000.0,036.7,029.6,7.7,0000.0,0008.49,0002.72,0002.00
2023-11-14 02:28:00,SystemResetWarning,0831.7,5.01,000.00,028.3,027.1,000.0,036.7,029.6,7.4,0000.0,0008.16,0002.68,0001.96
2023-11-14 02:29:00,SystemResetWarning,0831.7,5.00,000.00,028.3,027.1,000.0,036.7,029.6,7.4,0000.0,0007.72,0002.61,0001.93
2023-11-14 02:30:00,SystemResetWarning,0831.7,5.00,000.00,028.3,027.1,000.0,036.7,029.6,7.5,0000.0,0007.38,0002.59,0001.94
2023-11-14 02:31:00,SystemResetWarning,0831.6,4.99,000.00,028.3,027.1,000.0,036.7,029.6,7.7,0000.0,0007.50,0002.68,0001.97
2023-11-14 02:32:00,SystemResetWarning,0831.7,5.00,000.00,028.3,027.1,000.0,036.7,029.6,7.9,0000.0,0007.79,0002.81,0002.02
2023-11-14 02:33:00,SystemResetWarning,0831.6,5.01,000.00,028.3,027.1,000.0,036.7,029.6,7.9,0000.0,0007.67,0002.85,0002.06
2023-11-14 02:34:00,SystemResetWarning,0831.6,5.01,000.00,028.3,027.1,000.0,036.7,029.6,7.9,0000.0,0007.44,0002.89,0002.07
2023-11-14 02:35:00,SystemResetWarning,0831.6,4.99,000.00,028.2,027.1,000.0,036.7,029.6,7.6,0000.0,0007.60,0002.96,0002.10
2023-11-14 02:36:00,SystemResetWarning,0831.6,4.99,000.00,028.3,027.1,000.0,036.7,029.6,7.8,0000.0,0007.70,0003.02,0002.15
2023-11-14 02:37:00,SystemResetWarning,0831.6,5.00,000.00,028.2,027.1,000.0,036.7,029.6,7.7,0000.0,0007.51,0003.11,0002.20
2023-11-14 02:38:00,SystemResetWarning,0831.6,5.00,000.00,028.2,027.1,000.0,036.7,029.6,7.9,0000.0,0007.99,0003.22,0002.27
2023-11-14 02:39:00,SystemResetWarning,0831.6,5.00,000.00,028.2,027.0,000.0,036.7,029.6,7.8,0000.0,0008.38,0003.29,0002.34
2023-11-14 02:40:00,SystemResetWarning,0831.6,5.00,000.00,028.2,027.0,000.0,036.7,029.6,7.6,0000.0,0008.90,0003.39,0002.43
2023-11-14 02:41:00,SystemResetWarning,0831.7,5.00,000.00,028.2,027.0,000.0,036.7,029.6,7.5,0000.0,0008.62,0003.42,0002.46
2023-11-14 02:42:00,SystemResetWarning,0831.7,5.00,000.00,028.2,027.0,000.0,036.7,029.6,7.5,0000.0,0009.23,0003.45,0002.49
2023-11-14 02:43:00,SystemResetWarning,0831.7,5.00,000.00,028.2,027.0,000.0,036.6,029.6,7.4,0000.0,0009.18,0003.45,0002.50
2023-11-14 02:44:00,SystemResetWarning,0831.7,5.00,000.00,028.2,027.0,000.0,036.6,029.5,7.4,0000.0,0009.35,0003.50,0002.52
2023-11-14 02:45:00,SystemResetWarning,0831.6,5.00,000.00,028.2,027.0,000.0,036.6,029.5,7.4,0000.0,0009.70,0003.54,0002.56
2023-11-14 02:46:00,SystemResetWarning,0831.6,5.00,000.00,028.2,027.0,000.0,036.6,029.5,7.4,0000.0,0010.26,0003.55,0002.59
2023-11-14 02:47:00,SystemResetWarning,0831.7,5.00,000.00,028.2,027.0,000.0,036.6,029.6,7.3,0000.0,0010.23,0003.55,0002.58
2023-11-14 02:48:00,SystemResetWarning,0831.6,5.00,000.00,028.2,027.0,000.0,036.6,029.6,7.2,0000.0,0009.80,0003.50,0002.58
2023-11-14 02:49:00,SystemResetWarning,0831.6,5.00,000.00,028.2,027.0,000.0,036.6,029.5,7.1,0000.0,0009.42,0003.44,0002.54
2023-11-14 02:50:00,SystemResetWarning,0831.6,4.99,000.00,028.2,027.0,000.0,036.6,029.5,7.0,0000.0,0009.23,0003.41,0002.52
2023-11-14 02:51:00,SystemResetWarning,0831.6,4.99,000.00,028.2,026.9,000.0,036.6,029.5,7.1,0000.0,0008.86,0003.38,0002.49
2023-11-14 02:52:00,SystemResetWarning,0831.6,5.01,000.00,028.2,026.9,000.0,036.6,029.5,7.0,0000.0,0008.94,0003.38,0002.48
2023-11-14 02:53:00,SystemResetWarning,0831.6,5.01,000.00,028.1,026.9,000.0,036.6,029.4,7.0,0000.0,0008.55,0003.35,0002.45
2023-11-14 02:54:00,SystemResetWarning,0831.7,5.01,000.00,028.1,026.9,000.0,036.6,029.5,7.1,0000.0,0008.40,0003.34,0002.43
2023-11-14 02:55:00,SystemResetWarning,0831.6,5.00,000.00,028.1,026.9,000.0,036.6,029.4,7.1,0000.0,0008.27,0003.30,0002.41
2023-11-14 02:56:00,SystemResetWarning,0831.6,5.00,000.00,028.1,026.9,000.0,036.6,029.4,7.1,0000.0,0008.29,0003.25,0002.38
2023-11-14 02:57:00,SystemResetWarning,0831.6,4.99,000.00,028.1,026.9,000.0,036.6,029.5,7.1,0000.0,0007.78,0003.24,0002.36
2023-11-14 02:58:00,SystemResetWarning,0831.6,5.00,000.00,028.1,026.9,000.0,036.5,029.5,7.0,0000.0,0007.72,0003.20,0002.34
2023-11-14 02:59:00,SystemResetWarning,0831.6,4.99,000.00,028.1,026.8,000.0,036.5,029.5,7.0,0000.0,0007.74,0003.17,0002.32
